1493719200.76,4145,13.0,73798.5,3.31,2.43,2.55,0,*4F
1493719202.0,4146,13.06,73804.0,3.31,3.19,3.19,0,*4B
1493719203.2,4147,13.0,73792.5,3.33,2.95,2.95,0,*48
1493719204.42,4148,13.0,73788.0,3.31,2.35,2.55,0,*43
1493719205.65,4149,13.06,73778.8,3.31,0.79,0.67,0,*4B
1493719206.88,4150,13.06,73788.0,3.27,0.59,0.47,0,*44
1493719208.13,4151,13.0,73780.8,3.27,1.13,1.13,0,*4A
1493719209.32,4152,13.0,73780.0,3.21,1.43,1.41,0,*4D
1493719210.49,4153,13.06,73788.3,3.21,1.83,1.83,0,*4E
1493719211.67,4154,13.06,73794.8,3.21,1.79,1.79,0,*49
1493719212.92,4155,13.0,73794.3,3.19,1.33,1.33,0,*43
1493719214.09,4156,13.0,73788.3,3.17,1.79,1.79,0,*4E
1493719215.35,4157,13.06,73790.3,3.19,2.17,2.17,0,*41
1493719216.52,4158,13.0,73784.0,3.17,1.75,1.75,0,*40
1493719217.69,4159,13.06,73784.5,3.17,2.31,2.35,0,*45
1493719218.86,4160,13.06,73784.0,3.17,1.75,1.79,0,*47
1493719220.06,4161,13.06,73786.8,3.15,1.75,1.75,0,*48
1493719221.25,4162,13.0,73784.5,3.13,1.75,1.71,0,*49
1493719222.47,4163,13.06,73790.3,3.13,2.43,2.47,0,*48
1493719223.67,4164,13.06,73784.0,3.13,2.99,3.03,0,*49
1493719224.89,4165,13.06,73790.3,3.15,2.43,2.31,0,*49
1493719226.09,4166,13.06,73788.0,3.13,2.27,2.17,0,*4A
1493719227.33,4167,13.06,73792.5,3.15,2.17,2.05,0,*4D
1493719228.55,4168,13.06,73790.3,3.13,1.47,1.47,0,*47
1493719229.77,4169,13.0,73798.3,3.13,1.93,1.97,0,*42
1493719231.0,4170,13.06,73808.8,3.11,1.89,1.93,0,*47
1493719232.24,4171,13.06,73810.0,3.11,2.05,2.05,0,*4D
1493719233.47,4172,13.06,73812.8,3.11,2.65,2.73,0,*49
1493719234.69,4173,13.06,73810.0,3.13,2.77,2.89,0,*4C
1493719235.92,4174,13.06,73806.3,3.13,2.81,2.89,0,*42
1493719237.13,4175,13.06,73818.3,3.13,3.19,3.19,0,*4B
1493719238.38,4176,13.0,73810.8,3.15,3.15,3.11,0,*4A
1493719239.63,4177,13.06,73812.0,3.15,2.81,2.81,0,*4F
1493719240.87,4178,13.06,73816.5,3.15,1.71,1.63,0,*43
1493719242.06,4179,13.06,73814.0,3.13,1.59,1.75,0,*49
1493719243.23,4180,13.0,73810.3,3.13,2.31,2.31,0,*41
1493719244.45,4181,13.06,73818.8,3.13,2.77,2.77,0,*40
1493719245.67,4182,13.0,73816.0,3.13,3.19,3.19,0,*43
1493719246.86,4183,13.06,73822.3,3.13,2.91,3.03,0,*48
1493719248.1,4184,13.06,73820.0,3.15,3.19,3.19,0,*43
1493719249.29,4185,13.06,73826.0,3.15,3.25,3.25,0,*42
1493719250.54,4186,13.06,73826.5,3.19,3.23,3.23,0,*4D
1493719251.77,4187,13.06,73832.0,3.15,3.19,3.23,0,*49
1493719253.02,4188,13.06,73830.3,3.19,3.07,3.11,0,*44
1493719254.25,4189,13.06,73832.5,3.17,3.03,3.03,0,*4C
1493719255.47,4190,13.06,73826.8,3.17,3.03,3.07,0,*40
1493719256.72,4191,13.06,73828.0,3.19,3.07,3.11,0,*4C
1493719257.94,4192,13.06,73824.8,3.19,2.99,3.07,0,*4E
1493719259.17,4193,13.06,73824.5,3.17,2.81,2.73,0,*4A
1493719260.38,4194,13.06,73820.3,3.19,3.19,3.25,0,*41
1493719261.63,4195,13.06,73820.8,3.19,3.45,3.49,0,*43
1493719262.85,4196,13.06,73814.0,3.21,3.37,3.49,0,*4E
1493719264.02,4197,13.06,73810.8,3.25,3.59,3.63,0,*4B
1493719265.24,4198,13.06,73808.5,3.25,3.41,3.49,0,*45
1493719266.47,4199,13.06,73804.8,3.25,3.41,3.41,0,*4C
1493719267.69,4200,13.06,73804.3,3.25,3.41,3.53,0,*4C
1493719268.88,4201,13.06,73810.5,3.25,3.63,3.75,0,*49
1493719270.08,4202,13.06,73804.5,3.25,3.75,3.81,0,*46
1493719271.28,4203,13.06,73804.5,3.29,3.67,3.85,0,*4C
1493719272.46,4204,13.06,73812.0,3.29,3.29,3.29,0,*47
1493719273.63,4205,13.06,73802.8,3.29,2.95,2.95,0,*46
1493719274.83,4206,13.06,73798.3,3.29,2.91,3.03,0,*4F
1493719276.06,4207,13.06,73816.8,3.29,2.73,2.81,0,*49
1493719277.24,4208,13.06,73814.8,3.29,2.61,2.61,0,*4B
1493719278.49,4209,13.06,73800.0,3.27,2.51,2.51,0,*44
1493719279.74,4210,13.06,73798.3,3.27,3.03,3.11,0,*4F
1493719280.98,4211,13.06,73802.3,3.27,2.39,2.39,0,*4D
1493719282.2,4212,13.06,73802.5,3.25,2.05,1.97,0,*44
1493719283.38,4213,13.06,73800.0,3.25,1.83,1.71,0,*40
1493719284.55,4214,13.06,73794.3,3.21,1.05,0.97,0,*74
1493719285.79,4215,13.06,73790.0,3.19,1.63,1.67,0,*40
1493719287.01,4216,13.06,73794.3,3.17,2.21,2.25,0,*4D
1493719288.23,4217,13.06,73792.8,3.19,2.55,2.65,0,*45
1493719289.48,4218,13.06,73790.0,3.19,2.51,2.51,0,*49
1493719290.68,4219,13.06,73784.3,3.19,2.65,2.65,0,*48
1493719291.9,4220,13.06,73780.3,3.17,2.21,2.25,0,*48
1493719293.07,4221,13.06,73786.5,3.17,2.31,2.31,0,*4D
1493719294.29,4222,13.06,73780.0,3.17,2.21,2.13,0,*4F
1493719295.53,4223,13.06,73786.5,3.19,2.51,2.55,0,*45
1493719296.75,4224,13.06,73790.0,3.15,2.17,2.27,0,*49
1493719297.98,4225,13.06,73788.5,3.15,2.59,2.65,0,*44
1493719299.2,4226,13.06,73790.5,3.17,2.43,2.43,0,*4A
1493719300.45,4227,13.06,73796.3,3.15,2.17,2.09,0,*46
1493719301.64,4228,13.06,73800.0,3.15,1.75,1.75,0,*46
1493719302.87,4229,13.06,73798.8,3.13,2.39,2.43,0,*4C
1493719304.07,4230,13.06,73798.3,3.13,2.91,3.03,0,*43
1493719305.3,4231,13.06,73800.0,3.15,3.19,3.19,0,*4E
1493719306.49,4232,13.06,73804.8,3.15,2.91,2.91,0,*4D
1493719307.73,4233,13.06,73808.8,3.17,3.15,3.15,0,*4E
1493719308.9,4234,13.06,73814.8,3.17,2.95,2.95,0,*49
1493719310.12,4235,13.06,73812.5,3.17,2.09,2.09,0,*48
1493719311.29,4236,13.06,73806.8,3.17,1.75,1.75,0,*4B
1493719312.51,4237,13.06,73806.0,3.15,2.65,2.69,0,*44
1493719313.74,4238,13.06,73810.8,3.15,3.19,3.19,0,*47
1493719314.94,4239,13.06,73812.8,3.15,3.25,3.29,0,*4A
1493719316.11,4240,13.06,73812.5,3.17,3.29,3.29,0,*4A
1493719317.34,4241,13.06,73810.5,3.17,3.37,3.41,0,*4A
1493719318.53,4242,13.06,73810.8,3.19,3.55,3.59,0,*4A
1493719319.75,4243,13.06,73812.5,3.21,3.45,3.49,0,*40
1493719320.94,4244,13.06,73816.3,3.25,3.25,3.37,0,*4C
1493719322.16,4245,13.06,73822.3,3.21,2.77,2.85,0,*47
1493719323.33,4246,13.06,73826.3,3.25,2.99,2.99,0,*4D
1493719324.53,4247,13.06,73820.8,3.21,3.23,3.25,0,*4E
1493719325.7,4248,13.06,73822.8,3.21,3.29,3.29,0,*47
1493719326.92,4249,13.06,73818.5,3.25,3.23,3.23,0,*42
1493719328.17,4250,13.06,73808.8,3.27,3.41,3.41,0,*48
1493719329.39,4251,13.06,73808.8,3.27,3.63,3.71,0,*4A
1493719330.56,4252,13.06,73814.5,3.29,3.55,3.55,0,*44
1493719331.73,4253,13.06,73806.0,3.29,2.91,2.95,0,*41
1493719332.97,4254,13.06,73804.3,3.27,2.69,2.69,0,*4C
1493719334.2,4255,13.06,73812.5,3.29,3.41,3.45,0,*47
1493719335.45,4256,13.06,73814.5,3.27,3.41,3.53,0,*4D
1493719336.67,4257,13.06,73816.3,3.29,3.03,3.11,0,*42
1493719337.9,4258,13.06,73822.0,3.29,3.07,3.07,0,*4E
1493719339.1,4259,13.06,73818.0,3.29,3.25,3.19,0,*40
1493719340.3,4260,13.06,73818.0,3.29,3.79,3.89,0,*4A
1493719341.5,4261,13.06,73820.0,3.29,3.85,3.97,0,*47
1493719342.72,4262,13.06,73818.5,3.31,4.05,4.15,0,*4F
1493719343.94,4263,13.06,73826.0,3.31,4.05,4.15,0,*4E
1493719345.12,4264,13.06,73820.3,3.35,3.85,3.85,0,*4C
1493719346.29,4265,13.06,73822.8,3.35,3.85,3.93,0,*4A
1493719347.54,4266,13.06,73818.5,3.37,3.37,3.37,0,*4C
1493719348.77,4267,13.06,73816.8,3.35,3.23,3.23,0,*4F
1493719349.97,4268,13.06,73818.3,3.37,3.25,3.25,0,*42
1493719351.17,4269,13.06,73812.5,3.37,3.81,3.93,0,*40
1493719352.4,4270,13.06,73812.8,3.37,4.05,4.11,0,*4E
1493719353.65,4271,13.06,73820.8,3.37,4.05,4.05,0,*4A
1493719354.82,4272,13.06,73822.3,3.39,4.11,4.11,0,*47
1493719356.0,4273,13.06,73822.8,3.43,4.15,4.15,0,*4B
1493719357.17,4274,13.06,73818.5,3.43,4.11,4.11,0,*4C
1493719358.37,4275,13.06,73818.5,3.43,3.93,4.01,0,*41
1493719359.6,4276,13.06,73822.5,3.43,3.67,3.71,0,*49
1493719360.82,4277,13.06,73818.3,3.43,2.69,2.73,0,*44
1493719362.04,4278,13.06,73828.8,3.43,3.49,3.49,0,*40
1493719363.23,4279,13.06,73820.0,3.43,3.55,3.67,0,*40
1493719364.4,4280,13.06,73824.0,3.43,3.81,3.81,0,*47
1493719365.59,4281,13.06,73820.3,3.45,3.55,3.55,0,*40
1493719366.82,4282,13.06,73802.5,3.43,3.79,3.79,0,*45
1493719368.01,4283,13.06,73810.8,3.45,3.59,3.59,0,*42
1493719369.23,4284,13.06,73814.3,3.45,2.89,2.99,0,*44
1493719370.45,4285,13.06,73810.8,3.43,2.89,3.07,0,*45
1493719371.7,4286,13.06,73812.8,3.45,3.49,3.49,0,*47
1493719372.89,4287,13.06,73810.0,3.45,3.55,3.59,0,*4A
1493719374.09,4288,13.06,73804.8,3.43,3.49,3.55,0,*42
1493719375.33,4289,13.06,73796.8,3.45,3.11,3.19,0,*40
1493719376.59,4290,13.06,73806.8,3.45,3.07,3.11,0,*47
1493719377.81,4291,13.06,73798.8,3.43,2.77,2.85,0,*4A
1493719378.99,4292,13.06,73800.3,3.43,2.61,2.61,0,*44
1493719380.18,4293,13.06,73804.5,3.43,2.89,2.95,0,*48
1493719381.4,4294,13.06,73812.3,3.43,3.11,3.19,0,*4A
1493719382.6,4295,13.06,73798.5,3.43,3.29,3.23,0,*49
1493719383.85,4296,13.06,73800.8,3.45,2.85,2.89,0,*4A
1493719385.07,4297,13.06,73800.8,3.43,3.33,3.49,0,*4C
1493719386.29,4298,13.06,73804.3,3.43,3.71,3.79,0,*46
1493719387.46,4299,13.06,73806.8,3.43,3.55,3.55,0,*4F
1493719388.69,4300,13.06,73802.0,3.43,3.41,3.41,0,*4E
1493719389.92,4301,13.06,73800.3,3.43,3.41,3.45,0,*4B
1493719391.11,4302,13.06,73798.5,3.43,3.49,3.55,0,*41
1493719392.36,4303,13.06,73796.3,3.45,3.45,3.49,0,*47
1493719393.53,4304,13.06,73796.8,3.43,2.99,2.99,0,*4A
1493719394.78,4305,13.06,73792.3,3.49,3.33,3.37,0,*45
1493719395.98,4306,13.06,73796.3,3.43,3.33,3.29,0,*43
1493719397.2,4307,13.06,73796.3,3.43,3.07,3.19,0,*46
1493719398.44,4308,13.06,73794.3,3.45,3.19,3.19,0,*40
1493719399.64,4309,13.06,73800.5,3.43,2.61,2.51,0,*44
1493719400.85,4310,13.06,73796.8,3.43,2.51,2.61,0,*4C
1493719402.07,4311,13.06,73786.3,3.43,3.11,3.19,0,*46
1493719403.3,4312,13.06,73782.5,3.41,3.19,3.29,0,*4C
1493719404.55,4313,13.06,73786.5,3.41,2.59,2.47,0,*41
1493719405.8,4314,13.06,73782.3,3.41,2.25,2.21,0,*4D
1493719407.02,4315,13.06,73782.8,3.39,1.89,1.85,0,*4B
1493719408.27,4316,13.06,73790.5,3.37,2.39,2.39,0,*4A
1493719409.5,4317,13.06,73792.8,3.35,3.15,3.23,0,*4C
1493719410.7,4318,13.06,73786.5,3.37,1.83,1.83,0,*44
1493719411.93,4319,13.06,73790.5,3.35,2.09,2.17,0,*48
1493719413.15,4320,13.06,73790.5,3.35,1.71,1.71,0,*4D
1493719414.42,4321,13.06,73802.3,3.33,1.33,1.21,0,*49
1493719415.65,4322,13.06,73804.3,3.31,1.89,1.97,0,*44
1493719416.87,4323,13.06,73800.8,3.31,2.61,2.59,0,*41
1493719418.12,4324,13.06,73802.0,3.31,2.13,2.09,0,*46
1493719419.36,4325,13.06,73804.8,3.31,2.13,2.21,0,*4D
1493719420.57,4326,13.06,73800.0,3.29,2.73,2.69,0,*4D
1493719421.81,4327,13.06,73806.5,3.29,3.15,3.15,0,*47
1493719423.03,4328,13.06,73808.0,3.29,3.19,3.19,0,*48
1493719424.27,4329,13.06,73812.3,3.31,3.45,3.45,0,*40
1493719425.5,4330,13.06,73820.0,3.29,3.45,3.45,0,*41
1493719426.7,4331,13.06,73816.0,3.31,3.25,3.25,0,*49
1493719427.95,4332,13.06,73812.3,3.33,3.45,3.49,0,*44
1493719429.18,4333,13.06,73822.3,3.33,3.33,3.29,0,*42
1493719430.39,4334,13.06,73812.0,3.33,2.65,2.65,0,*4E
1493719431.59,4335,13.06,73818.3,3.33,2.95,2.99,0,*43
1493719432.84,4336,13.06,73814.8,3.33,3.37,3.33,0,*48
1493719434.1,4337,13.06,73816.5,3.33,3.45,3.49,0,*41
1493719435.32,4338,13.06,73818.8,3.37,3.75,3.85,0,*49
1493719436.52,4339,13.06,73818.8,3.37,3.81,3.85,0,*43
1493719437.74,4340,13.06,73818.8,3.37,3.53,3.63,0,*4A
1493719438.97,4341,13.06,73814.0,3.39,3.67,3.79,0,*49
1493719440.19,4342,13.06,73814.5,3.39,3.67,3.79,0,*4A
1493719441.36,4343,13.06,73810.5,3.39,2.95,2.95,0,*44
1493719442.54,4344,13.06,73814.5,3.39,2.65,2.65,0,*43
1493719443.73,4345,13.06,73818.5,3.39,2.73,2.91,0,*4E
1493719444.9,4346,13.06,73812.3,3.39,2.95,2.95,0,*41
1493719446.12,4347,13.06,73806.5,3.39,3.53,3.53,0,*40
1493719447.35,4348,13.06,73806.3,3.37,4.05,4.07,0,*43
1493719448.55,4349,13.06,73802.0,3.41,4.11,4.23,0,*40
1493719449.76,4350,13.06,73806.5,3.41,4.15,4.15,0,*49
1493719450.96,4351,13.06,73808.5,3.41,3.85,3.89,0,*44
1493719452.19,4352,13.06,73810.5,3.45,3.93,4.05,0,*47
1493719453.39,4353,13.06,73802.8,3.45,4.15,4.27,0,*4F
1493719454.62,4354,13.06,73804.5,3.45,3.79,3.89,0,*46
1493719455.82,4355,13.06,73814.8,3.45,3.89,3.93,0,*43
1493719457.05,4356,13.06,73820.0,3.49,3.63,3.71,0,*44
1493719458.28,4357,13.06,73818.8,3.49,3.25,3.33,0,*41
1493719459.48,4358,13.06,73822.8,3.49,3.59,3.63,0,*40
1493719460.68,4359,13.06,73822.0,3.49,4.07,4.19,0,*47
1493719461.88,4360,13.06,73820.5,3.51,3.89,4.01,0,*4C
1493719463.05,4361,13.06,73818.0,3.51,4.23,4.23,0,*4A
1493719464.26,4362,13.06,73820.0,3.55,4.31,4.37,0,*4B
1493719465.49,4363,13.06,73816.0,3.55,4.63,4.71,0,*4F
1493719466.73,4364,13.06,73812.5,3.55,4.59,4.63,0,*42
1493719467.93,4365,13.06,73818.3,3.55,4.53,4.59,0,*40
1493719469.15,4366,13.06,73810.8,3.57,4.63,4.85,0,*43
1493719470.35,4367,13.06,73808.3,3.59,4.85,4.97,0,*47
1493719471.57,4368,13.13,73810.0,3.61,4.79,4.81,0,*47
1493719472.79,4369,13.06,73808.8,3.61,4.57,4.67,0,*42
1493719474.0,4370,13.06,73808.3,3.65,4.81,4.93,0,*4E
1493719475.23,4371,13.06,73798.5,3.65,4.63,4.75,0,*4B
1493719476.43,4372,13.06,73794.5,3.67,4.41,4.53,0,*4E
1493719477.64,4373,13.06,73798.8,3.67,4.37,4.37,0,*4C
1493719478.87,4374,13.06,73794.8,3.67,4.05,4.11,0,*4E
1493719480.07,4375,13.06,73788.8,3.65,3.63,3.71,0,*4B
1493719481.27,4376,13.06,73782.0,3.67,3.63,3.63,0,*49
1493719482.47,4377,13.06,73778.5,3.65,3.63,3.71,0,*49
1493719483.69,4378,13.06,73784.8,3.67,2.91,2.85,0,*42
1493719484.95,4379,13.06,73780.3,3.67,3.07,3.11,0,*41
1493719486.18,4380,13.06,73778.8,3.65,3.33,3.45,0,*43
1493719487.38,4381,13.06,73776.5,3.65,3.89,4.01,0,*44
1493719488.6,4382,13.06,73780.3,3.65,2.73,2.81,0,*4D
1493719489.83,4383,13.06,73782.5,3.65,2.47,2.39,0,*48
1493719491.06,4384,13.06,73784.0,3.65,2.69,2.73,0,*4D
1493719492.25,4385,13.06,73782.8,3.61,3.59,3.63,0,*4A
1493719493.47,4386,13.06,73778.5,3.63,3.97,4.01,0,*4A
1493719494.69,4387,13.06,73778.0,3.65,3.45,3.53,0,*42
1493719495.86,4388,13.06,73782.0,3.63,3.63,3.63,0,*4C
1493719497.04,4389,13.06,73778.8,3.65,3.81,3.81,0,*4B
1493719498.26,4390,13.06,73788.3,3.65,3.53,3.53,0,*43
1493719499.49,4391,13.06,73788.8,3.65,3.45,3.45,0,*42
1493719500.72,4392,13.06,73790.3,3.65,3.41,3.45,0,*45
1493719501.91,4393,13.06,73802.8,3.65,3.93,3.93,0,*40
1493719503.13,4394,13.06,73804.5,3.67,3.93,4.01,0,*49
1493719504.34,4395,13.06,73798.8,3.67,3.89,3.93,0,*4F
1493719505.56,4396,13.06,73800.3,3.67,4.49,4.59,0,*46
1493719506.78,4397,13.06,73800.5,3.67,4.75,4.85,0,*49
1493719507.98,4398,13.06,73798.8,3.73,5.15,5.27,0,*4D
1493719509.18,4399,13.06,73800.8,3.75,5.11,5.15,0,*4F
1493719510.35,4400,13.06,73798.3,3.77,5.07,5.15,0,*4D
1493719511.55,4401,13.13,73802.8,3.79,5.15,5.19,0,*4D
1493719512.73,4402,13.06,73808.0,3.81,5.19,5.23,0,*4C
1493719513.93,4403,13.13,73812.5,3.83,5.23,5.33,0,*47
1493719515.18,4404,13.06,73816.8,3.83,5.01,5.01,0,*41
1493719516.44,4405,13.06,73820.8,3.83,4.93,5.01,0,*4A
1493719517.63,4406,13.13,73816.0,3.85,4.57,4.59,0,*4B
1493719518.8,4407,13.13,73808.8,3.89,5.15,5.19,0,*44
1493719520.02,4408,13.06,73812.0,3.87,5.45,5.55,0,*48
1493719521.2,4409,13.06,73812.8,3.89,5.67,5.67,0,*46
1493719522.37,4410,13.13,73818.0,3.93,5.95,5.99,0,*49
1493719523.56,4411,13.06,73812.0,3.95,5.37,5.37,0,*42
1493719524.76,4412,13.06,73812.3,3.95,5.11,5.23,0,*40
1493719525.97,4413,13.06,73812.3,3.95,5.37,5.51,0,*40
1493719527.15,4414,13.13,73812.8,3.99,5.37,5.41,0,*4A
1493719528.35,4415,13.13,73816.3,3.97,5.11,5.15,0,*40
1493719529.55,4416,13.06,73814.3,4.01,4.81,4.85,0,*4B
1493719530.74,4417,13.06,73814.3,4.01,4.45,4.49,0,*42
1493719531.95,4418,13.13,73810.8,4.01,4.57,4.57,0,*41
1493719533.17,4419,13.06,73816.8,4.03,4.63,4.71,0,*41
1493719534.38,4420,13.13,73814.3,4.03,4.85,5.01,0,*45
1493719535.58,4421,13.13,73822.0,4.03,5.01,5.07,0,*4F
1493719536.84,4422,13.06,73818.5,4.05,4.93,5.05,0,*42
1493719538.06,4423,13.13,73812.5,4.05,5.15,5.27,0,*4C
1493719539.27,4424,13.13,73810.0,4.07,5.05,5.11,0,*4D
1493719540.46,4425,13.06,73812.5,4.07,5.15,5.27,0,*48
1493719541.63,4426,13.13,73822.3,4.07,4.81,4.81,0,*4A
1493719542.86,4427,13.13,73816.3,4.11,4.93,5.05,0,*42
1493719544.06,4428,13.06,73812.5,4.11,5.05,5.15,0,*42
1493719545.26,4429,13.06,73810.5,4.09,5.37,5.37,0,*4B
1493719546.46,4430,13.06,73804.8,4.09,5.41,5.49,0,*4B
1493719547.64,4431,13.06,73810.8,4.11,5.27,5.37,0,*4A
1493719548.84,4432,13.06,73814.0,4.11,3.79,3.85,0,*4B
1493719550.02,4433,13.13,73814.3,4.11,4.15,4.23,0,*4C
1493719551.26,4434,13.13,73808.0,4.09,3.97,4.01,0,*4F
1493719552.45,4435,13.13,73810.5,4.09,3.55,3.55,0,*46
1493719553.67,4436,13.13,73814.5,4.11,3.45,3.53,0,*4B
1493719554.87,4437,13.06,73814.8,4.09,4.07,4.11,0,*43
1493719556.05,4438,13.13,73818.0,4.07,4.07,4.07,0,*45
1493719557.23,4439,13.13,73812.5,4.07,3.85,3.93,0,*43
1493719558.43,4440,13.06,73806.8,4.09,4.23,4.23,0,*44
1493719559.65,4441,13.06,73806.5,4.07,4.05,4.05,0,*4B
1493719560.85,4442,13.06,73820.5,4.07,4.45,4.63,0,*4C
1493719562.04,4443,13.13,73816.0,4.07,5.23,5.23,0,*49
1493719563.26,4444,13.06,73818.5,4.09,5.49,5.51,0,*49
1493719564.43,4445,13.13,73816.8,4.11,5.19,5.29,0,*4B
1493719565.6,4446,13.06,73816.3,4.11,5.37,5.29,0,*44
1493719566.81,4447,13.06,73820.3,4.13,5.11,5.19,0,*40
1493719568.04,4448,13.13,73828.3,4.17,5.05,5.15,0,*42
1493719569.24,4449,13.13,73826.0,4.17,4.45,4.53,0,*45
1493719570.43,4450,13.13,73824.5,4.13,4.41,4.53,0,*4D
1493719571.63,4451,13.13,73826.5,4.13,5.23,5.29,0,*45
1493719572.83,4452,13.13,73822.5,4.17,5.59,5.59,0,*48
1493719574.05,4453,13.06,73818.3,4.17,5.27,5.37,0,*48
1493719575.21,4454,13.13,73818.8,4.19,5.33,5.45,0,*41
1493719576.4,4455,13.06,73816.5,4.19,5.27,5.37,0,*40
1493719577.59,4456,13.06,73818.8,4.21,5.37,5.41,0,*48
1493719578.79,4457,13.13,73816.8,4.21,5.49,5.59,0,*49
1493719580.01,4458,13.13,73818.3,4.21,5.71,5.77,0,*41
1493719581.18,4459,13.13,73814.0,4.23,5.19,5.41,0,*49
1493719582.4,4460,13.06,73816.3,4.25,4.81,4.93,0,*4B
1493719583.64,4461,13.06,73818.0,4.25,4.01,4.01,0,*49
1493719584.86,4462,13.13,73816.0,4.23,3.67,3.67,0,*4C
1493719586.03,4463,13.13,73816.0,4.23,3.85,3.89,0,*41
1493719587.22,4464,13.06,73818.0,4.21,4.49,4.49,0,*48
1493719588.47,4465,13.06,73818.5,4.21,4.59,4.59,0,*49
1493719589.69,4466,13.06,73812.8,4.21,4.57,4.59,0,*44
1493719590.92,4467,13.13,73816.5,4.23,4.59,4.67,0,*44
1493719592.16,4468,13.13,73808.5,4.21,4.01,4.01,0,*44
1493719593.38,4469,13.06,73810.8,4.19,3.23,3.15,0,*4B
1493719594.56,4470,13.13,73804.3,4.19,2.91,2.99,0,*4E
1493719595.76,4471,13.06,73800.3,4.17,4.15,4.15,0,*49
1493719596.92,4472,13.06,73794.0,4.19,4.19,4.19,0,*44
1493719598.12,4473,13.13,73788.3,4.19,4.31,4.33,0,*47
1493719599.32,4474,13.13,73798.8,4.17,3.81,3.85,0,*48
1493719600.57,4475,13.13,73792.5,4.17,3.37,3.37,0,*4D
1493719601.82,4476,13.13,73796.5,4.13,3.45,3.45,0,*4A
1493719603.07,4477,13.13,73808.0,4.17,3.37,3.33,0,*4B
1493719604.32,4478,13.13,73812.8,4.13,3.33,3.41,0,*41
1493719605.54,4479,13.13,73804.8,4.11,3.45,3.53,0,*40
1493719606.8,4480,13.13,73802.3,4.09,3.45,3.41,0,*4C
1493719608.0,4481,13.13,73806.8,4.09,4.15,4.11,0,*4D
1493719609.19,4482,13.13,73802.5,4.09,4.07,4.11,0,*4D
1493719610.45,4483,13.13,73804.3,4.09,3.67,3.67,0,*4B
1493719611.69,4484,13.13,73804.8,4.09,3.97,3.97,0,*4C
1493719612.89,4485,13.13,73814.5,4.07,3.93,3.97,0,*47
1493719614.09,4486,13.13,73820.0,4.09,4.15,4.15,0,*4E
1493719615.3,4487,13.13,73822.0,4.09,4.07,4.07,0,*4F
1493719616.51,4488,13.13,73820.5,4.09,3.89,3.89,0,*40
1493719617.68,4489,13.13,73812.0,4.07,4.11,4.11,0,*4F
1493719618.88,4490,13.13,73804.8,4.09,4.15,4.23,0,*4C
1493719620.06,4491,13.13,73804.3,4.11,4.37,4.45,0,*44
1493719621.26,4492,13.13,73810.8,4.09,4.37,4.49,0,*42
1493719622.46,4493,13.13,73806.8,4.09,4.23,4.23,0,*4A
1493719623.69,4494,13.13,73810.5,4.07,4.05,4.05,0,*43
1493719624.89,4495,13.13,73814.0,4.07,4.23,4.31,0,*41
1493719626.06,4496,13.13,73810.0,4.07,4.19,4.23,0,*48
1493719627.29,4497,13.13,73808.3,4.09,4.07,4.01,0,*48
1493719628.49,4498,13.13,73816.8,4.09,4.15,4.15,0,*41
1493719629.69,4499,13.13,73816.5,4.09,4.11,4.15,0,*44
1493719630.89,4500,13.13,73814.0,4.09,3.85,3.89,0,*4D
1493719632.07,4501,13.13,73808.5,4.07,3.63,3.81,0,*42
1493719633.29,4502,13.13,73810.8,4.05,3.33,3.25,0,*48
1493719634.48,4503,13.13,73806.3,4.07,3.49,3.59,0,*4D
1493719635.7,4504,13.13,73808.5,4.07,3.53,3.53,0,*4B
1493719636.89,4505,13.13,73810.0,4.05,3.81,3.85,0,*4C
1493719638.15,4506,13.13,73802.5,4.05,3.75,3.75,0,*4B
1493719639.32,4507,13.13,73808.5,4.07,3.85,3.85,0,*48
1493719640.52,4508,13.13,73816.0,4.05,3.59,3.81,0,*40
1493719641.75,4509,13.13,73818.5,4.05,3.11,2.99,0,*45
1493719642.97,4510,13.13,73818.8,4.01,3.55,3.53,0,*4E
1493719644.21,4511,13.13,73812.5,4.01,3.97,3.97,0,*49
1493719645.4,4512,13.13,73812.8,4.03,4.01,4.11,0,*49
1493719646.62,4513,13.13,73818.8,4.03,3.97,4.01,0,*41
1493719647.82,4514,13.13,73820.5,4.01,3.89,3.85,0,*40
1493719649.07,4515,13.13,73820.5,4.01,3.67,3.79,0,*42
1493719650.32,4516,13.13,73820.5,4.01,3.45,3.53,0,*49
1493719651.57,4517,13.13,73824.0,4.01,3.67,3.79,0,*40
1493719652.77,4518,13.13,73822.8,4.01,3.55,3.55,0,*40
1493719653.97,4519,13.13,73828.3,3.99,3.19,3.25,0,*48
1493719655.2,4520,13.13,73820.3,3.97,3.75,3.81,0,*48
1493719656.4,4521,13.13,73822.5,3.99,3.75,3.55,0,*4E
1493719657.63,4522,13.13,73816.0,3.99,3.33,3.33,0,*4F
1493719658.87,4523,13.13,73820.3,3.99,3.75,3.75,0,*4E
1493719660.07,4524,13.13,73816.3,3.97,3.85,3.93,0,*40
1493719661.24,4525,13.13,73814.0,3.99,3.63,3.63,0,*48
1493719662.47,4526,13.13,73820.3,3.99,3.67,3.67,0,*4B
1493719663.7,4527,13.13,73826.8,3.97,3.63,3.75,0,*43
1493719664.89,4528,13.13,73822.0,3.97,3.63,3.63,0,*4B
1493719666.15,4529,13.13,73818.0,3.97,3.71,3.75,0,*4E
1493719667.41,4530,13.13,73822.5,3.97,3.75,3.75,0,*42
1493719668.61,4531,13.13,73816.3,3.99,3.89,3.97,0,*42
1493719669.86,4532,13.13,73818.0,3.97,3.97,3.97,0,*40
1493719671.06,4533,13.13,73820.5,3.99,4.05,4.15,0,*4E
1493719672.26,4534,13.13,73812.8,3.97,4.11,4.23,0,*47
1493719673.45,4535,13.13,73816.8,3.99,4.27,4.33,0,*4C
1493719674.69,4536,13.13,73818.0,3.97,3.53,3.53,0,*44
1493719675.92,4537,13.13,73814.5,3.99,3.75,3.75,0,*4B
1493719677.15,4538,13.13,73818.3,3.97,3.29,3.37,0,*45
1493719678.4,4539,13.13,73824.5,3.97,2.59,2.59,0,*4B
1493719679.6,4540,13.13,73820.0,3.97,2.99,2.99,0,*45
1493719680.85,4541,13.13,73820.0,3.95,3.23,3.23,0,*46
1493719682.06,4542,13.13,73816.5,3.93,3.49,3.49,0,*43
1493719683.28,4543,13.13,73826.3,3.93,3.71,3.71,0,*42
1493719684.48,4544,13.13,73822.5,3.93,3.79,3.89,0,*4A
1493719685.65,4545,13.13,73812.5,3.93,3.89,3.89,0,*44
1493719686.84,4546,13.13,73816.8,3.95,3.59,3.59,0,*41
1493719688.05,4547,13.13,73810.8,3.93,3.33,3.37,0,*42
1493719689.3,4548,13.13,73808.8,3.95,3.37,3.41,0,*4E
1493719690.49,4549,13.13,73804.5,3.93,3.55,3.49,0,*45
1493719691.71,4550,13.13,73800.3,3.93,3.49,3.49,0,*40
1493719692.87,4551,13.13,73796.0,3.89,3.55,3.63,0,*4F
1493719694.06,4552,13.13,73796.0,3.89,3.55,3.67,0,*48
1493719695.31,4553,13.13,73798.3,3.87,3.03,3.03,0,*46
1493719696.56,4554,13.13,73788.8,3.87,3.07,3.07,0,*41
1493719697.81,4555,13.13,73798.0,3.87,3.03,3.03,0,*40
1493719699.03,4556,13.13,73798.8,3.87,1.89,1.79,0,*4C
1493719700.25,4557,13.13,73800.0,3.85,2.55,2.59,0,*4C
1493719701.49,4558,13.13,73798.0,3.83,3.03,3.03,0,*49
1493719702.66,4559,13.13,73796.5,3.85,3.59,3.63,0,*47
1493719703.91,4560,13.13,73798.5,3.83,3.75,3.75,0,*42
1493719705.16,4561,13.13,73794.3,3.83,3.11,3.11,0,*43
1493719706.41,4562,13.13,73782.8,3.83,3.15,3.15,0,*40
1493719707.61,4563,13.13,73786.8,3.83,3.29,3.29,0,*41
1493719708.86,4564,13.13,73782.5,3.83,3.11,3.15,0,*42
1493719710.09,4565,13.13,73788.0,3.81,3.15,3.33,0,*41
1493719711.31,4566,13.13,73800.5,3.81,2.69,2.73,0,*4D
1493719712.55,4567,13.13,73804.8,3.79,2.09,2.01,0,*48
1493719713.79,4568,13.13,73808.0,3.79,1.51,1.47,0,*48
1493719715.03,4569,13.13,73808.8,3.75,2.25,2.25,0,*42
1493719716.23,4570,13.13,73804.0,3.77,3.29,3.33,0,*43
1493719717.43,4571,13.13,73802.0,3.77,3.63,3.67,0,*4D
1493719718.65,4572,13.13,73810.5,3.77,3.23,3.23,0,*4A
1493719719.87,4573,13.13,73812.0,3.77,3.41,3.45,0,*4F
1493719721.09,4574,13.13,73812.3,3.77,3.33,3.33,0,*4C
1493719722.32,4575,13.13,73820.3,3.77,3.33,3.41,0,*48
1493719723.51,4576,13.13,73816.8,3.77,2.95,3.03,0,*40
1493719724.76,4577,13.13,73818.8,3.75,2.81,2.81,0,*4D
1493719725.99,4578,13.13,73816.5,3.75,2.65,2.77,0,*41
1493719727.23,4579,13.13,73822.5,3.75,2.89,2.81,0,*4B
1493719728.43,4580,13.13,73822.8,3.73,2.99,2.89,0,*42
1493719729.68,4581,13.13,73816.0,3.71,2.51,2.43,0,*43
1493719730.93,4582,13.13,73818.5,3.71,2.77,2.77,0,*43
1493719732.16,4583,13.13,73808.8,3.73,3.07,3.15,0,*43
1493719733.34,4584,13.13,73814.5,3.73,3.59,3.59,0,*47
1493719734.56,4585,13.13,73816.0,3.73,3.79,3.79,0,*46
1493719735.79,4586,13.13,73814.5,3.73,3.41,3.41,0,*45
1493719736.97,4587,13.13,73810.5,3.73,3.25,3.29,0,*48
1493719738.17,4588,13.13,73812.8,3.73,3.03,2.99,0,*49
1493719739.4,4589,13.13,73818.3,3.73,3.15,3.07,0,*49